www.pogodaiklimat.ru

Погода и климат >> Архив погоды >> Беларусь >> Полесская


ПОГОДА в Полесской

  • Прогноз погоды в Полесской
  • Монитор погоды в Полесской
  • Климат города

АРХИВ ПОГОДЫ в Полесской

Время (UTC), дата Ветер
(напр.,м/с)
 
Видим.   Явления Облачность Т
(С)
Тd
(С)
f
(%)
Тe
(С)
Тes
(С)
Комфортность P
(гПа)
Po
(гПа)
Тmin
(С)
Tmax
(С)
R
(мм)
R24
(мм)
S
(см)
18 12.09 Ю 3 9000 м ливневой дождь 10 баллов +19.0 +16.6 86 +21 +21 комфорт 1003.0 988.6 +26.0
21 12.09 Ю 3 10 км ливневой дождь 10 баллов +17.9 +17.3 96 +18 +18 1004.0 989.6
00 13.09 З 5
{10}
10 км 10 баллов +15.2 +14.2 94 +14 +14 1004.0 989.4
03 13.09 З 4
{10}
10 км 10 баллов +14.4 +12.9 91 +13 +13 1005.0 990.4 +14.4
06 13.09 З 4 7000 м дымка 10 баллов +14.6 +13.3 92 +13 +13 1006.0 991.4 +14.4 1
09 13.09 З 4 10 км 10 баллов +16.9 +11.2 69 +16 +16 1008.0 993.4
12 13.09 З 5
{10}
10 км 10 баллов +18.3 +9.9 58 +18 +18 1008.0 993.5
15 13.09 ЮЗ 3 10 км 10 баллов +18.5 +11.3 63 +19 +19 1008.0 993.5
18 13.09 ЮЗ 2 10 км 10 баллов +13.3 +10.3 82 +13 +13 1008.0 993.2 +19.3
21 13.09 ЮЗ 4 10 км 10 баллов +13.6 +11.8 89 +12 +12 1007.0 992.3
00 14.09 Ю 5 10 км 10 баллов +13.2 +9.3 77 +11 +11 1005.0 990.3
03 14.09 ЮЗ 5
{10}
10 км 10 баллов +12.1 +8.6 79 +10 +10 1005.0 990.2 +12.1
06 14.09 ЮЗ 6
{10}
10 км 10 баллов +15.3 +9.2 67 +14 +14 1005.0 990.4 +12.0
09 14.09 ЮЗ 7
{14}
10 км 10 баллов +19.5 +12.0 62 +20 +20 1004.0 989.6
12 14.09 Ю 6
{12}
10 км 10 баллов +21.3 +12.2 56 +23 +23 комфорт 1005.0 990.7
15 14.09 Ю 4
{10}
10 км 10 баллов +22.5 +14.1 59 +26 +26 жарко 1003.0 988.8
18 14.09 ЮВ 4 10 км 10 баллов +19.3 +12.1 63 +20 +20 1003.0 988.6 +24.2
21 14.09 ЮВ 4 10 км 10 баллов +16.6 +10.9 69 +16 +16 1003.0 988.5
00 15.09 З 3 10 км 10 баллов +14.9 +12.2 84 +14 +14 1004.0 989.4
03 15.09 З 4 9000 м ливневой дождь 10 баллов +12.8 +11.4 91 +11 +11 1005.0 990.3 +12.8
06 15.09 ЮЗ 4 9000 м ливневой дождь 10 баллов +11.1 +9.8 92 +9 +9 1008.0 993.1 +11.1 0.6
09 15.09 ЮЗ 8
{12}
10 км 10 баллов +14.7 +8.4 66 +13 +13 1010.0 995.3
12 15.09 ЮЗ 9
{14}
10 км 10 баллов +16.7 +6.2 50 +15 +15 1012.0 997.3
15 15.09 З 7
{14}
10 км 10 баллов +14.9 +5.9 55 +13 +13 1014.0 999.2
18 15.09 Ю 3
{11}
10 км 10 баллов +11.9 +8.2 78 +10 +10 1016.0 1001.0 +17.5
21 15.09 Ю 4 9000 м дымка 10 баллов +7.9 +6.8 93 +4 +4 1017.0 1001.8
00 16.09 штиль 0 1500 м дымка 6 баллов +4.2 +4.1 99 +3 +3 1018.0 1002.6
03 16.09 штиль 0 900 м туман 10 баллов +4.0 +3.6 97 +3 +3 1019.0 1003.6 +2.8
06 16.09 штиль 0 10 км 10 баллов +10.1 +7.9 86 +9 +9 1019.0 1003.9 +2.8
09 16.09 ЮВ 3 10 км 10 баллов +16.3 +6.7 53 +16 +16 1019.0 1004.2
12 16.09 СВ 3 10 км 10 баллов +15.1 +9.9 71 +14 +14 1019.0 1004.2
15 16.09 СВ 3 9000 м ливневой дождь 10 баллов +14.8 +9.4 70 +14 +14 1018.0 1003.2
18 16.09 СВ 4 9000 м ливневой дождь 10 баллов +13.0 +10.7 86 +11 +11 1017.0 1002.1 +18.1 1
21 16.09 СВ 4 10 км 10 баллов +12.5 +10.6 88 +11 +11 1016.0 1001.1
00 17.09 СВ 3 10 км 10 баллов +12.3 +10.2 87 +11 +11 1015.0 1000.1
03 17.09 СВ 3 10 км 10 баллов +11.2 +9.6 90 +9 +9 1014.0 999.0 +10.0
06 17.09 В 3 10 км 10 баллов +13.3 +10.5 83 +12 +12 1013.0 998.2 +10.0
09 17.09 СВ 1 10 км 10 баллов +19.3 +13.7 70 +22 +22 комфорт 1012.0 997.5
12 17.09 СЗ 2 9000 м ливневой дождь 10 баллов +20.6 +16.6 78 +25 +25 комфорт 1011.0 996.6
15 17.09 СВ 3 9000 м ливневой дождь 10 баллов +17.4 +16.3 93 +17 +17 1010.0 995.5
18 17.09 СВ 3 10 км ливневой дождь 10 баллов +16.8 +15.8 94 +17 +17 1008.0 993.4 +22.1 2
21 17.09 Ю 3
{11}
8000 м гроза, ливневой дождь 10 баллов +15.2 +14.6 96 +14 +14 1005.0 990.4
00 18.09 Ю 4 10 км 10 баллов +15.7 +14.6 93 +15 +15 1004.0 989.4
03 18.09 Ю 5 10 км 10 баллов +13.7 +11.7 88 +12 +12 1003.0 988.3 +13.5
06 18.09 ЮЗ 9
{16}
10 км 10 баллов +12.8 +9.2 79 +10 +10 1005.0 990.3 +12.8 27
09 18.09 ЮЗ 10
{16}
10 км 10 баллов +14.2 +8.8 70 +12 +12 1007.0 992.3
12 18.09 ЮЗ 9
{17}
10 км 10 баллов +15.1 +7.9 62 +13 +13 1008.0 993.3
15 18.09 ЮЗ 10
{19}
10 км 10 баллов +15.6 +6.3 54 +14 +14 1009.0 994.3
18 18.09 ЮЗ 10
{17}
10 км 10 баллов +13.6 +8.0 69 +11 +11 1012.0 997.2 +17.5
21 18.09 З 7
{15}
10 км 10 баллов +12.1 +8.6 79 +9 +9 1014.0 999.1
00 19.09 ЮЗ 4
{10}
10 км 6 баллов +8.1 +6.7 91 +5 +5 1016.0 1000.8
03 19.09 З 3 7000 м дымка 6 баллов +6.8 +6.1 95 +4 +4 1017.0 1001.7 +6.8
06 19.09 ЮЗ 4 10 км 10 баллов +9.0 +7.9 93 +6 +6 1018.0 1002.9 +6.0
09 19.09 ЮЗ 5 10 км 10 баллов +15.4 +9.1 66 +14 +14 1019.0 1004.2
12 19.09 ЮЗ 3 10 км 10 баллов +18.3 +7.4 49 +19 +19 1018.0 1003.3
15 19.09 Ю 1 10 км 10 баллов +17.3 +7.6 53 +18 +18 1018.0 1003.3

 

Местоположение метеостанции Полесская (Брестская область, Беларусь): широта 52.30 долгота 26.70 высота над уровнем моря 124 м.

В архиве по умолчанию представлена погода в Полесской за последнюю неделю. Архивные данные за месяц целиком и за предыдущие месяцы, начиная с января 2011 года, Вы можете получить, выбрав интересующий диапазон дат из раскрывающегося списка и нажав кнопку "Ввод!".

Внимание! Время в таблицах - всемирное. Для получения местного времени необходимо прибавить поправку, которая в Полесской равна 3 ч.

Смотрите также архив погоды в соседних городах и на ближайших метеорологических станциях:

Погода в Пинске (Брестская область, Беларусь) (48 км)
Погода в Ганцевичах (Брестская область, Беларусь) (53 км)
Погода в Житковичах (Гомельская область, Беларусь) (80 км)
Погода в Слуцке (Минская область, Беларусь) (99 км)
Погода в Ивацевичах (Брестская область, Беларусь) (101 км)
Погода в Сарнах (Ровенская область, Украина) (114 км)
Погода в Любешове (Волынская область, Украина) (120 км)
Погода в Барановичах (Брестская область, Беларусь) (126 км)
Погода в Столбцах (Минская область, Беларусь) (131 км)
Погода в Олевске (Житомирская область, Украина) (138 км)

Пояснения к столбцам:

Ветер - указаны скорость ветра в м/с - средняя за 10 мин, порывы в срок и между сроками (в фигурных скобках) и направление, откуда дует ветер: С - северный, СВ - северо-восточный, В - восточный, ЮВ - юго-восточный, Ю - южный, ЮЗ - юго-западный, З - западный, СЗ - северо-западный.
Видимость - горизонтальная дальность видимости в метрах или километрах. При видимости от 1 до 10 км при отсутствии осадков обычно наблюдается дымка, при ухудшении видимости до 1 км и менее - туман. В сухую погоду видимость может ухудшаться дымом, пылью или мглою.
Явления - указаны атмосферные явления, наблюдавшиеся в срок или в последний час перед сроком; фигурными скобками обозначены явления, наблюдавшиеся между сроками (за 1-3 часа до срока); квадратными скобками обозначены град или гололедные отложения с указанием их диаметра в мм.
Облачность - указаны через наклонную черту общая и нижняя облачность в баллах и высота нижней границы облаков в метрах; квадратными скобками обозначены формы облаков: Ci - перистые, Cs - перисто-слоистые, Cc - перисто-кучевые, Ac - высококучевые, As - высокослоистые, Sc - слоисто-кучевые, Ns - слоисто-дождевые, Cu - кучевые, Cb - кучево-дождевые. Подробнее классификацию облаков см. в Атласе облаков (PDF).
T - Температура воздуха - температура, измеренная на высоте 2 м над землей.
Td - Температура точки росы - температура, при понижении до которой содержащийся в воздухе водяной пар достигнет насыщения.
f - Относительная влажность воздуха - влажноcть воздуха, измеренная на высоте 2 м над землей.
Te - Эффективная температура - температура, которую ощущает одетый по сезону человек в тени. Характеристика душности погоды. При расчете учитывается влияние влажности воздуха и скорости ветра на теплоощущения человека.
Tes - Эффективная температура на солнце - температура, которую ощущает человек, с поправкой на солнечный нагрев. Характеристика знойности погоды. Зависит от высоты солнца над горизонтом, облачности и скорости ветра. Ночью, в пасмурную погоду, а также при ветре 12 м/с и более поправка равна нулю.
P - Атмосферное давление - приведенное к уровню моря атмосферное давление.
Po - Атмосферное давление - измеренное на уровне метеостанции атмосферное давление.
Tmin - Минимальная температура - минимум температуры воздуха на высоте 2 м над землей.
Tmax - Максимальная температура - максимум температуры воздуха на высоте 2 м над землей.
R - Количество осадков - Количество выпавших осадков за период времени, мм. При наведении курсора мыши на число - период времени, за который выпало указанное количество осадков.
R24 - Количество осадков - Количество выпавших осадков за 24 часа, мм.
S - Снежный покров - Высота снежного покрова, см. При наведении курсора мыши на число - состояние снежного покрова и степень покрытия местности в баллах.